Location: Chervonnoye
(48.6000°N, 34.4000°E)
Time: 13:45:23
(UTC+00:00)

Cosmos 2297 - Pass Details

Date: 23 November 2020
Orbit: 834 x 860 km, 71.0° (Epoch: 27 January)

Event Time Altitude Azimuth Distance (km) Brightness Sun altitude
Rises 15:07:37 0° 335° (NNW) 3,406 7.0 -11.8°
Reaches altitude 10° 15:10:16 10° 344° (NNW) 2,471 6.1 -12.3°
Maximum altitude 15:15:29 36° 51° (NE) 1,313 4.2 -13.1°
Drops below altitude 10° 15:20:42 10° 117° (ESE) 2,475 5.7 -13.9°
Enters shadow 15:20:51 - 118° (ESE) 2,527 5.8 -13.9°
